Stündliche Wetter Holub'yatyn

Heute, 21 Juni, Montag

Zeit Temperatur Niederschläge Wind Luftdruck Luftfeuchtigkeit
00:00 +19°C° 0 mm 3 m/S 742 mmHg 95%
01:00 +19°C° 0 mm 3 m/S 742 mmHg 96%
02:00 +18°C° 0 mm 2 m/S 742 mmHg 96%
03:00 +18°C° 0 mm 2 m/S 742 mmHg 96%
04:00 +19°C° 0 mm 2 m/S 742 mmHg 96%
05:00 +19°C° 0 mm 2 m/S 742 mmHg 96%
06:00 +20°C° 0 mm 2 m/S 742 mmHg 91%
07:00 +22°C° 0 mm 3 m/S 742 mmHg 86%
08:00 +24°C° 0 mm 3 m/S 742 mmHg 81%
09:00 +25°C° 0 mm 3 m/S 741 mmHg 77%
10:00 +26°C° 0 mm 3 m/S 741 mmHg 73%
11:00 +27°C° 0 mm 3 m/S 741 mmHg 69%
12:00 +28°C° 0 mm 3 m/S 741 mmHg 70%
13:00 +28°C° 0 mm 3 m/S 741 mmHg 71%
14:00 +28°C° 0 mm 2 m/S 741 mmHg 72%
15:00 +28°C° 0 mm 2 m/S 741 mmHg 71%
16:00 +28°C° 0 mm 2 m/S 741 mmHg 71%
17:00 +28°C° 0 mm 2 m/S 741 mmHg 71%
18:00 +26°C° 0 mm 2 m/S 741 mmHg 75%
19:00 +25°C° 0 mm 1 m/S 742 mmHg 80%
20:00 +24°C° 0 mm 1 m/S 742 mmHg 84%
21:00 +23°C° 0 mm 1 m/S 742 mmHg 85%
22:00 +22°C° 0 mm 1 m/S 742 mmHg 87%
23:00 +20°C° 0 mm 0 m/S 742 mmHg 88%

Morgen, 22 Juni, Dienstag

Zeit Temperatur Niederschläge Wind Luftdruck Luftfeuchtigkeit
00:00 +19°C° 0 mm 0 m/S 742 mmHg 89%
01:00 +19°C° 0 mm 0 m/S 742 mmHg 90%
02:00 +19°C° 0 mm 0 m/S 742 mmHg 91%
03:00 +21°C° 0 mm 1 m/S 742 mmHg 91%
04:00 +21°C° 0 mm 1 m/S 742 mmHg 92%
05:00 +20°C° 0 mm 2 m/S 742 mmHg 92%
06:00 +21°C° 0 mm 3 m/S 742 mmHg 88%
07:00 +24°C° 0 mm 3 m/S 742 mmHg 83%
08:00 +25°C° 0 mm 4 m/S 742 mmHg 78%
09:00 +26°C° 0 mm 4 m/S 742 mmHg 71%
10:00 +27°C° 0 mm 4 m/S 742 mmHg 65%
11:00 +28°C° 0 mm 4 m/S 742 mmHg 58%
12:00 +28°C° 0 mm 4 m/S 742 mmHg 57%
13:00 +28°C° 0 mm 4 m/S 743 mmHg 57%
14:00 +28°C° 0 mm 4 m/S 743 mmHg 57%
15:00 +28°C° 0 mm 4 m/S 743 mmHg 60%
16:00 +28°C° 0 mm 4 m/S 743 mmHg 64%
17:00 +28°C° 0 mm 3 m/S 742 mmHg 67%
18:00 +26°C° 0 mm 3 m/S 742 mmHg 73%
19:00 +25°C° 0 mm 3 m/S 743 mmHg 78%
20:00 +22°C° 0 mm 3 m/S 743 mmHg 83%
21:00 +21°C° 0 mm 3 m/S 743 mmHg 83%
22:00 +21°C° 0 mm 3 m/S 743 mmHg 83%
23:00 +20°C° 0 mm 2 m/S 743 mmHg 84%

übermorgen, 23 Juni, Mittwoch

Zeit Temperatur Niederschläge Wind Luftdruck Luftfeuchtigkeit
00:00 +20°C° 0 mm 2 m/S 743 mmHg 84%
01:00 +20°C° 0 mm 2 m/S 743 mmHg 84%
02:00 +20°C° 0 mm 1 m/S 743 mmHg 84%
03:00 +19°C° 0 mm 2 m/S 743 mmHg 84%
04:00 +20°C° 0 mm 2 m/S 743 mmHg 85%
05:00 +20°C° 0 mm 2 m/S 743 mmHg 86%
06:00 +21°C° 0 mm 2 m/S 743 mmHg 82%
07:00 +24°C° 0 mm 2 m/S 743 mmHg 79%
08:00 +25°C° 0 mm 3 m/S 744 mmHg 75%
09:00 +27°C° 0 mm 3 m/S 744 mmHg 72%
10:00 +28°C° 0 mm 3 m/S 744 mmHg 68%
11:00 +29°C° 0 mm 3 m/S 744 mmHg 65%
12:00 +30°C° 0 mm 3 m/S 744 mmHg 64%
13:00 +30°C° 0 mm 3 m/S 744 mmHg 62%
14:00 +30°C° 0 mm 3 m/S 743 mmHg 61%
15:00 +30°C° 0 mm 3 m/S 743 mmHg 66%
16:00 +29°C° 0 mm 3 m/S 744 mmHg 71%
17:00 +28°C° 0 mm 3 m/S 744 mmHg 76%
18:00 +27°C° 0 mm 3 m/S 744 mmHg 80%
19:00 +26°C° 0 mm 2 m/S 744 mmHg 84%
20:00 +25°C° 0 mm 2 m/S 744 mmHg 89%
21:00 +24°C° 0 mm 2 m/S 744 mmHg 89%
22:00 +23°C° 0 mm 2 m/S 744 mmHg 90%
23:00 +23°C° 0 mm 2 m/S 744 mmHg 91%

24 Juni, Donnerstag

Zeit Temperatur Niederschläge Wind Luftdruck Luftfeuchtigkeit
00:00 +21°C° 0 mm 2 m/S 744 mmHg 91%
01:00 +21°C° 0 mm 2 m/S 744 mmHg 91%
02:00 +21°C° 0 mm 1 m/S 744 mmHg 90%
03:00 +21°C° 0 mm 2 m/S 744 mmHg 91%
04:00 +21°C° 0 mm 2 m/S 744 mmHg 91%
05:00 +21°C° 0 mm 2 m/S 744 mmHg 92%
06:00 +23°C° 0.1 mm 2 m/S 744 mmHg 87%
07:00 +25°C° 0.1 mm 2 m/S 745 mmHg 83%
08:00 +27°C° 0.1 mm 2 m/S 745 mmHg 78%
09:00 +28°C° 0 mm 2 m/S 745 mmHg 74%
10:00 +29°C° 0 mm 2 m/S 745 mmHg 70%
11:00 +30°C° 0 mm 2 m/S 745 mmHg 65%
12:00 +31°C° 0 mm 2 m/S 745 mmHg 62%
13:00 +31°C° 0 mm 2 m/S 745 mmHg 59%
14:00 +32°C° 0 mm 2 m/S 745 mmHg 56%
15:00 +32°C° 0 mm 2 m/S 745 mmHg 58%
16:00 +32°C° 0 mm 2 m/S 744 mmHg 59%
17:00 +32°C° 0 mm 1 m/S 744 mmHg 60%
18:00 +30°C° 0 mm 2 m/S 744 mmHg 65%
19:00 +28°C° 0 mm 2 m/S 744 mmHg 71%
20:00 +27°C° 0 mm 2 m/S 744 mmHg 76%
21:00 +26°C° 0.1 mm 1 m/S 744 mmHg 80%
22:00 +25°C° 0.1 mm 1 m/S 744 mmHg 84%
23:00 +24°C° 0.1 mm 1 m/S 744 mmHg 88%

25 Juni, Freitag

Zeit Temperatur Niederschläge Wind Luftdruck Luftfeuchtigkeit
00:00 +24°C° 0 mm 1 m/S 744 mmHg 89%
01:00 +23°C° 0 mm 1 m/S 744 mmHg 90%
02:00 +23°C° 0 mm 1 m/S 743 mmHg 91%
03:00 +23°C° 0 mm 1 m/S 743 mmHg 91%
04:00 +23°C° 0 mm 1 m/S 744 mmHg 91%
05:00 +22°C° 0 mm 1 m/S 744 mmHg 91%
06:00 +24°C° 0 mm 2 m/S 744 mmHg 85%
07:00 +25°C° 0 mm 2 m/S 744 mmHg 80%
08:00 +27°C° 0 mm 3 m/S 744 mmHg 75%
09:00 +28°C° 0 mm 3 m/S 744 mmHg 69%
10:00 +29°C° 0 mm 3 m/S 744 mmHg 64%
11:00 +30°C° 0 mm 3 m/S 744 mmHg 59%
12:00 +30°C° 0 mm 2 m/S 744 mmHg 56%
13:00 +31°C° 0 mm 2 m/S 744 mmHg 54%
14:00 +31°C° 0 mm 2 m/S 744 mmHg 52%
15:00 +31°C° 0 mm 2 m/S 744 mmHg 54%
16:00 +31°C° 0 mm 2 m/S 744 mmHg 57%
17:00 +31°C° 0 mm 2 m/S 744 mmHg 59%
18:00 +29°C° 0 mm 2 m/S 743 mmHg 64%
19:00 +28°C° 0 mm 2 m/S 743 mmHg 69%
20:00 +26°C° 0 mm 1 m/S 743 mmHg 74%
21:00 +25°C° 0 mm 1 m/S 743 mmHg 76%
22:00 +25°C° 0 mm 1 m/S 743 mmHg 78%
23:00 +24°C° 0 mm 1 m/S 743 mmHg 79%

26 Juni, Samstag

Zeit Temperatur Niederschläge Wind Luftdruck Luftfeuchtigkeit
00:00 +23°C° 0.2 mm 1 m/S 743 mmHg 81%
01:00 +23°C° 0.2 mm 1 m/S 743 mmHg 83%
02:00 +22°C° 0.2 mm 1 m/S 743 mmHg 85%
03:00 +22°C° 0 mm 1 m/S 743 mmHg 85%
04:00 +23°C° 0 mm 1 m/S 743 mmHg 85%
05:00 +23°C° 0 mm 1 m/S 743 mmHg 86%
06:00 +24°C° 0 mm 1 m/S 743 mmHg 81%
07:00 +26°C° 0 mm 1 m/S 743 mmHg 77%
08:00 +27°C° 0 mm 1 m/S 743 mmHg 72%
09:00 +28°C° 0 mm 1 m/S 743 mmHg 68%
10:00 +30°C° 0 mm 1 m/S 743 mmHg 63%
11:00 +31°C° 0 mm 1 m/S 743 mmHg 59%
12:00 +31°C° 0 mm 1 m/S 743 mmHg 57%
13:00 +32°C° 0 mm 2 m/S 743 mmHg 54%
14:00 +32°C° 0 mm 2 m/S 743 mmHg 52%
15:00 +32°C° 0 mm 2 m/S 742 mmHg 54%
16:00 +32°C° 0 mm 2 m/S 742 mmHg 57%
17:00 +32°C° 0 mm 2 m/S 742 mmHg 60%
18:00 +29°C° 1.2 mm 2 m/S 742 mmHg 69%
19:00 +26°C° 1.2 mm 3 m/S 742 mmHg 78%
20:00 +22°C° 1.2 mm 4 m/S 742 mmHg 88%
21:00 +21°C° 1.6 mm 4 m/S 742 mmHg 90%
22:00 +20°C° 1.6 mm 4 m/S 742 mmHg 92%
23:00 +19°C° 1.6 mm 4 m/S 742 mmHg 94%
Mehr zeigen

Wir brauchen deine Erlaubnis

Meteoprog und unser Service Anbieter werden persönliche Daten aufbewahren, so wie Cookies, Geräte Bezeichnung oder ähnliche Technologien von deinem Gerät und Prozess, so wie Persönliche Daten Inhalte und Werbungen, genauso wie social Media und den Verkehr zu analysieren.

  • Aufbewahrung und/oder Zugang zu deiner Geräte Informationen.

    Cookies, Geräte Bezeichnung oder andere Informationen, können aufbewahrt oder Zugang zu deinem Gerät erhalten, für den Grund, der oben angegeben wird.

  • Personalisierte Werbung und Inhalte, Messungen, Einblick in das Publikum und Produkt Entwicklung.

    Werbungen und Inhalte können personalisiert werden, basierend auf ein Profil. Mehr Daten können besser personalisierte Werbungen und Inhalte hinzufügen. Werbung und Inhalte können gezeigt und gemessen werden. Einblicke über das Publikum, welche die Werbung gesehen haben und den Inhalt, können abgeleitet werden. So wie Daten können genutzt werden, um es zu verbessern oder die Benutzer Erfahrung zu verbessern das System und die Software.

Wenn du “Ich stimme zu” klickst, erlaubst du uns, die Cookies zu benutzen die Geräte Bezeichnung, den Web oder ähnliche Technologien zu benutzen. Deine Settings, können in deinem Gerät bei deinem Browser geändert werden.

Für den bestimmten Zweck, berechtigten Interessen beruhen darauf, mehr als auf den Inhalt. Du kannst mehr darüber in unseren Privaten und Cookie Politik lesen.